Tracking 17844 objects as of 28-August-2016
HD Live streaming from Space Station
objects crossing your sky now

INMARSAT 4-F2

Track INMARSAT 4-F2 now!
INMARSAT 4-F2 is classified as:


NORAD ID: 28899
Int'l Code: 2005-044A
Perigee: 35,781.8 km
Apogee: 35,805.4 km
Inclination: 2.5 °
Period: 1,436.1 minutes
Semi major axis: 42164 km
RCS: 4.4668 m2 (large)
Launch date: November 8, 2005
Source: International Mobile Satellite Organization (INMARSAT) (IM)
Launch site: SEA LAUNCH (SEAL)

Nearly the size of a double-decker bus; more than 600 channels.
Your satellite tracking list
Your tracking list is empty





NASA's NSSDC Master Catalog

Two Line Element Set (TLE):
1 28899U 05044A   16240.91017032 -.00000019  00000-0  00000+0 0  9995
2 28899   2.5176   7.7080 0002794 159.6379 200.7714  1.00272276 39609
Source of the keplerian elements: AFSPC

N2YO: 471